Flag for Germany Weather past 2 weeks in Fürth, Bavaria, Germany

Now
34 °F

Broken clouds.


Feels Like: 29 °F
Forecast: 30 / 34 °F
Wind: 6 mph from Southwest

Location: Nuernberg

Current Time: Feb 1, 2015 at 12:44:34 PM

Latest Report: Feb 1, 2015 at 12:20 PM


Visibility: N/A

Pressure: 29.24 "Hg

Humidity: 87%

Dew point: 30 °F

Location of FürthLocation

Historic Weather in Fürth — Graph

°F

Fürth temperature yesterday

Maximum temperature yesterday: 36 °F (at 3:50 PM)
Minimum temperature yesterday: 30 °F (at 1:20 AM)
Average temperature yesterday: 32 °F

Past Weeks' High & Low Weather Summary

 TemperatureHumidityPressure
High39 °F (Jan 17, 11:20 AM)100% (Jan 17, 4:50 PM)30.36 "Hg (Jan 17, 4:50 PM)
Low25 °F (Feb 1, 6:50 AM)65% (Jan 29, 12:50 PM)28.71 "Hg (Jan 30, 3:20 AM)
Average34 °F90%29.80 "Hg
* Reported Jan 17 11:20 AM — Feb 1 11:50 AM, Fürth, Weather by CustomWeather, © 2014

Note: Actual official high and low records may vary slightly from our data, if they occured in-between our weather recording intervals... More about our weather records

Advertising

Fürth weather history for previous 24 hours

 ConditionsComfort  
Time TempWeatherWind HumidityBarometerVisibility
11:50 AM
Feb 1
34 °FPartly sunny.9 mph81%29.24 "HgN/A
11:20 AM34 °FPartly sunny.5 mph81%29.24 "HgN/A
10:50 AM32 °FBroken clouds.5 mph87%29.24 "HgN/A
10:20 AM32 °FPartly sunny.5 mph87%29.21 "HgN/A
9:50 AM30 °FScattered clouds.3 mph93%29.21 "HgN/A
9:20 AM30 °FScattered clouds.6 mph86%29.21 "HgN/A
8:50 AM28 °FSnow flurries. Partly sunny.6 mph93%29.21 "Hg3 mi
8:20 AM28 °FSunny.5 mph93%29.18 "Hg10 mi
7:50 AM28 °FSunny.7 mph93%29.18 "Hg10 mi
7:20 AM27 °FPassing clouds.6 mph93%29.18 "HgN/A
6:50 AM25 °FClear.6 mph100%29.18 "Hg10 mi
6:20 AM27 °FClear.7 mph93%29.18 "Hg10 mi
5:50 AM28 °FPassing clouds.6 mph93%29.15 "HgN/A
5:20 AM28 °FPassing clouds.5 mph93%29.15 "HgN/A
4:50 AM28 °FPassing clouds.3 mph93%29.15 "HgN/A
4:20 AM28 °FPassing clouds.3 mph93%29.15 "HgN/A
3:50 AM30 °FClear.1 mph86%29.15 "Hg10 mi
3:20 AM30 °FClear.No wind93%29.15 "Hg10 mi
2:50 AM32 °FPassing clouds.2 mph87%29.15 "HgN/A
2:20 AM32 °FPassing clouds.1 mph93%29.15 "HgN/A
1:50 AM32 °FPartly cloudy.3 mph93%29.15 "HgN/A
1:20 AM32 °FPartly cloudy.3 mph93%29.15 "HgN/A
12:50 AM32 °FPassing clouds.5 mph93%29.15 "HgN/A
12:20 AM32 °FPartly cloudy.3 mph93%29.15 "HgN/A
11:50 PM
Jan 31
32 °FLight snow. Passing clouds.3 mph93%29.15 "HgN/A
11:20 PM32 °FLight snow. Passing clouds.3 mph93%29.15 "Hg4 mi
10:50 PM32 °FLight snow. Passing clouds.5 mph93%29.15 "Hg4 mi
10:20 PM32 °FPartly cloudy.5 mph93%29.15 "HgN/A
9:50 PM32 °FPartly cloudy.6 mph87%29.12 "HgN/A
9:20 PM32 °FPassing clouds.5 mph93%29.15 "HgN/A
8:50 PM30 °FPassing clouds.3 mph93%29.12 "HgN/A
8:20 PM30 °FPartly cloudy.2 mph93%29.12 "HgN/A
7:50 PM32 °FPassing clouds.5 mph87%29.12 "HgN/A
7:20 PM32 °FPassing clouds.3 mph87%29.12 "HgN/A
6:50 PM34 °FPassing clouds.2 mph87%29.12 "HgN/A
6:20 PM34 °FPassing clouds.1 mph81%29.12 "HgN/A
5:50 PM34 °FPassing clouds.3 mph81%29.09 "HgN/A
5:20 PM34 °FPassing clouds.5 mph81%29.09 "HgN/A
4:20 PM34 °FBroken clouds.8 mph81%29.09 "HgN/A
3:50 PM36 °FPartly sunny.9 mph75%29.09 "HgN/A
3:20 PM34 °FBroken clouds.9 mph87%29.06 "HgN/A
2:50 PM34 °FBroken clouds.8 mph87%29.06 "HgN/A
2:20 PM34 °FBroken clouds.6 mph87%29.06 "HgN/A
1:50 PM34 °FLight snow. Broken clouds.9 mph87%29.06 "HgN/A
1:20 PM34 °FPartly sunny.12 mph81%29.06 "HgN/A
12:50 PM34 °FLight snow. Partly sunny.12 mph87%29.06 "HgN/A
12:20 PM34 °FPartly sunny.10 mph81%29.06 "HgN/A
Weather by CustomWeather, © 2014

See weather overviewHow to use our weather pages